Weather History for Lewiston, ID

Change the Weather History Date:

Sunday, October 28, 2012

  Actual Average Record
Temperature  
Mean Temperature 54 °F 47 °F  
Max Temperature 57 °F 56 °F 75 °F (2003)
Min Temperature 50 °F 38 °F 18 °F (1971)
Degree Days  
Heating Degree Days 11 18  
Month to date heating degree days 356 355  
Since 1 July heating degree days 368 469  
Cooling Degree Days 0 0  
Month to date cooling degree days 1 1  
Year to date cooling degree days 1034 805  
Growing Degree Days 4 (Base 50)    
Moisture  
Dew Point 49 °F    
Average Humidity 86    
Maximum Humidity 100    
Minimum Humidity 71    
Precipitation  
Precipitation 0.38 in 0.03 in 0.44 in (1931)
Month to date precipitation 1.90 0.84  
Year to date precipitation 13.16 10.04  
Snow  
Snow 0.00 in 0.00 in 0.00 in (1995)
Month to date snowfall 0.0 0.0  
Since 1 July snowfall 0.0 0.0  
Since 1 September snowfall 0.0 0.0  
Snow Depth 0.00 in    
Sea Level Pressure  
Sea Level Pressure 29.92 in    
Wind  
Wind Speed 3 mph (ESE)    
Max Wind Speed 22 mph    
Max Gust Speed 28 mph    
Visibility 9 miles    
Events Rain    
T = Trace of Precipitation, MM = Missing Value Source: NWS Daily Summary

Daily Weather History Graph

Daily Weather History Graph

Search for Another Location

Airport:

Trip Planner

Search our weather history database for the weather conditions in past years. The results will help you decide how hot, cold, wet, or windy it might be!

Date:

Astronomy

Oct. 28, 2012 Rise Set
Actual Time 7:24 AM PDT 5:38 PM PDT
Civil Twilight 6:53 AM PDT 6:09 PM PDT
Nautical Twilight 6:17 AM PDT 6:44 PM PDT
Astronomical Twilight 5:42 AM PDT 7:19 PM PDT
Moon 4:58 PM PDT (10/28) 6:20 AM PDT (10/28)
Length of Visible Light 11h 16m
Length of Day
10h 13m
Waxing Gibbous, 99% of the Moon is Illuminated
Oct 28
Waxing Gibbous
Oct 29
Full
Nov 6
Last Quarter
Nov 13
New
Nov 20
First Quarter

Hourly Weather History & Observations

Time (PDT) Temp. Dew Point Humidity Pressure Visibility Wind Dir Wind Speed Gust Speed Precip Events Conditions
12:56 AM 51.1 °F 43.0 °F 74% 29.88 in 10.0 mi South 19.6 mph 28.8 mph 0.01 in   Overcast
1:56 AM 52.0 °F 44.1 °F 74% 29.88 in 10.0 mi South 13.8 mph - N/A   Overcast
2:56 AM 52.0 °F 44.1 °F 74% 29.88 in 10.0 mi SSW 9.2 mph - N/A   Overcast
3:56 AM 51.1 °F 44.1 °F 77% 29.89 in 10.0 mi Calm Calm - N/A   Scattered Clouds
4:56 AM 53.1 °F 45.0 °F 74% 29.90 in 10.0 mi SSW 5.8 mph - N/A   Overcast
5:56 AM 52.0 °F 45.0 °F 77% 29.90 in 10.0 mi North 3.5 mph - N/A   Overcast
6:56 AM 54.0 °F 46.0 °F 75% 29.90 in 10.0 mi Calm Calm - N/A   Overcast
7:56 AM 53.6 °F 46.4 °F 77% 29.90 in 10.0 mi South 8.1 mph - N/A   Overcast
8:56 AM 54.0 °F 45.0 °F 72% 29.93 in 10.0 mi South 3.5 mph - N/A   Overcast
9:56 AM 54.0 °F 48.0 °F 80% 29.94 in 10.0 mi Calm Calm - N/A   Overcast
10:56 AM 55.0 °F 48.9 °F 80% 29.94 in 10.0 mi Calm Calm - N/A   Overcast
11:56 AM 53.1 °F 48.0 °F 83% 29.95 in 10.0 mi ENE 8.1 mph - N/A   Overcast
12:56 PM 54.0 °F 48.9 °F 83% 29.96 in 10.0 mi Calm Calm - 0.00 in Rain Light Rain
1:56 PM 54.0 °F 48.9 °F 83% 29.95 in 10.0 mi ENE 5.8 mph - 0.00 in   Overcast
2:56 PM 57.2 °F 50.0 °F 77% 29.93 in 10.0 mi NE 3.5 mph - N/A   Overcast
3:56 PM 55.0 °F 50.0 °F 83% 29.94 in 10.0 mi ENE 6.9 mph - N/A   Overcast
4:56 PM 55.0 °F 50.0 °F 83% 29.94 in 10.0 mi Calm Calm - N/A   Overcast
5:56 PM 53.1 °F 50.0 °F 89% 29.94 in 9.0 mi Calm Calm - 0.01 in Rain Light Rain
6:18 PM 53.6 °F 51.8 °F 94% 29.94 in 9.0 mi Calm Calm - 0.01 in Rain Light Rain
6:56 PM 52.0 °F 51.1 °F 97% 29.95 in 6.0 mi Calm Calm - 0.04 in Rain Light Rain
7:56 PM 53.1 °F 51.1 °F 93% 29.94 in 5.0 mi East 4.6 mph - 0.07 in Rain Rain
8:23 PM 51.8 °F 51.8 °F 100% 29.92 in 8.0 mi ENE 4.6 mph - 0.04 in Rain Light Rain
8:56 PM 53.1 °F 51.1 °F 93% 29.92 in 7.0 mi ESE 5.8 mph - 0.08 in Rain Rain
9:30 PM 51.8 °F 51.8 °F 100% 29.92 in 7.0 mi Calm Calm - 0.03 in Rain Light Rain
9:56 PM 53.1 °F 51.1 °F 93% 29.92 in 9.0 mi ENE 3.5 mph - 0.06 in Rain Light Rain
10:48 PM 51.8 °F 51.8 °F 100% 29.91 in 4.0 mi Calm Calm - 0.05 in Rain Rain
10:56 PM 52.0 °F 51.1 °F 97% 29.91 in 5.0 mi Calm Calm - 0.07 in Rain Light Rain
11:56 PM 52.0 °F 51.1 °F 97% 29.90 in 6.0 mi Calm Calm - 0.02 in Rain Light Rain